Regional Weather Roundup
Issued by NWS Burlington, VT

Home | Current Version | Previous Version | Text Only | Print | Product List | Glossary On
Versions: 1 2 3 4 5 6 7 8 9 10 11 12 13 14 15 16 17 18 19 20 21 22 23 24 25 26 27 28 29 30 31 32 33 34 35 36 37 38 39 40 41 42 43 44 45 46 47 48 49 50
000
ASUS41 KBTV 291130
RWRBTV
VERMONT REGIONAL WEATHER ROUNDUP
NATIONAL WEATHER SERVICE BURLINGTON VT
700 AM EDT SUN MAR 29 2015

NOTE: "FAIR" INDICATES FEW OR NO CLOUDS BELOW 12,000 FEET WITH NO
SIGNIFICANT WEATHER AND/OR OBSTRUCTIONS TO VISIBILITY.

* THESE REPORTS ARE NOT UNDER NWS QUALITY CONTROL AND/OR DO NOT
  REPORT WEATHER SUCH AS PRECIPITATION AND FOG.

VTZ001>019-291200-
_____VERMONT_____


CITY           SKY/WX    TMP DP  RH WIND       PRES   REMARKS
BURLINGTON     SUNNY     14   7  73 CALM      30.19R
MONTPELIER     SUNNY      9   4  80 CALM      30.16R
MORRISVILLE    SUNNY      6   1  80 CALM      30.17R
ST. JOHNSBURY*   N/A      9   5  84 MISG      30.14R
LYNDONVILLE*     N/A      8   1  73 CALM      30.13R
MIDDLEBURY*      N/A     13   8  81 CALM      30.19R
RUTLAND*       SUNNY     10   5  79 SE7       30.17R
SPRINGFIELD    SUNNY     16   5  62 CALM      30.17R
HIGHGATE*        N/A     12   9  86 CALM      30.20R
NEWPORT*         N/A      4   0  83 CALM      30.13R
BENNINGTON     SUNNY      7   2  80 CALM      30.18R
SUTTON*          N/A      7 N/A N/A MISG        N/A
GALLUP MILLS*    N/A      0 N/A N/A MISG        N/A
MT. MANSFIELD*   N/A      7 N/A N/A CALM        N/A

_____LAKE CHAMPLAIN_____


CITY           SKY/WX    TMP DP  RH WIND       PRES   REMARKS
BURTON ISLAND*   N/A     18   9  68 SE2         N/A
COLCHESTER RF*   N/A     19  14  79 S7          N/A

$$

NYZ007-026>031-035-052-083-291200-
_____NORTHERN NEW YORK_____


CITY           SKY/WX    TMP DP  RH WIND       PRES   REMARKS
PLATTSBURGH    SUNNY     14   5  67 CALM      30.19R
SARANAC LAKE   SUNNY     -9 -14  78 CALM      30.10R
MASSENA        SUNNY     12   6  77 SW7       30.22R
OGDENSBURG*    SUNNY     12  10  92 S5        30.22R
POTSDAM*       SUNNY     14   9  79 SW6       30.21R
STARK FALLS*     N/A      0 N/A N/A E5          N/A
WATERTOWN      SUNNY     15   8  73 S3        30.24R
FT DRUM        SUNNY     14   5  66 SW5       30.20R
ALBANY         SUNNY     11   5  77 CALM      30.24R
GLENS FALLS    SUNNY     15   7  70 CALM      30.21R

$$
NHZ002-005-011-291200-
_____NEW HAMPSHIRE_____


CITY           SKY/WX    TMP DP  RH WIND       PRES   REMARKS
LEBANON        SUNNY     15   7  70 CALM      30.15R
KEENE          SUNNY     12   9  85 S3        30.17R
MT WASHINGTON  SUNNY      0 -20  38 NW37        N/A  WCI -28
PLYMOUTH         N/A     22   9  57 W10       30.14R WCI  11
WHITEFIELD     SUNNY      5   1  83 CALM      30.11R

$$

_____REGIONAL QUEBEC LOCATIONS_____


CITY           SKY/WX    TMP DP  RH WIND       PRES   REMARKS
MONTREAL       SUNNY     14   5  67 SW7       30.19R
QUEBEC CITY    SUNNY     16  -2  45 NW6       30.10R
SHERBROOKE     SUNNY      3   0  85 CALM      30.12R

_____REGIONAL ONTARIO LOCATIONS_____


CITY           SKY/WX    TMP DP  RH WIND       PRES   REMARKS
OTTAWA         MOSUNNY   14   1  57 SW3       30.18R

______KEY______
VSB  - VISIBILITY IN MILES
WCI  - WIND CHILL INDEX
HX   - HEAT INDEX
$$
NNNN


USA.gov is the U.S. government's official web portal to all federal, state and local government web resources and services.